Wind_Speed
9 10 10 12 13 13 14 14 15 15 15 15 14 13 11 10 8 7 6 5 5 5 5 6 6 7 9 11 14 16 17 17 17 16 14 13 11 11 11 11 10 9 8
8 8 9 10 11 12 12 13 13 14 14 14 14 13 12 11 9 8 6 5 4 4 4 5 6 6 7 10 11 12 13 15 16 15 14 13 12 13 13 13 11 10 9
6 7 8 8 9 10 10 11 11 12 12 13 13 13 13 12 11 9 7 6 4 4 3 4 5 6 6 8 9 11 11 12 14 14 14 14 14 14 14 13 12 11 9
5 6 6 7 7 8 8 9 9 10 10 11 12 12 13 13 12 11 9 7 4 3 2 2 4 5 6 7 8 9 10 10 12 12 12 13 13 13 12 12 11 10 9
4 5 5 6 6 6 6 6 7 7 8 9 10 11 12 12 12 12 10 8 6 3 1 1 2 4 5 6 7 8 9 10 11 11 10 10 10 10 9 9 8 6 6
3 3 4 4 4 4 4 4 4 5 6 7 7 9 10 11 12 12 11 9 7 5 2 0 2 3 4 6 7 8 9 10 10 10 9 8 8 7 6 5 5 4 4
3 3 2 3 3 3 2 2 2 3 3 4 5 6 7 9 10 11 11 10 8 6 4 2 1 3 4 5 6 7 9 10 10 9 8 7 5 5 4 3 3 2 2
3 3 2 2 1 1 1 0 1 2 3 4 4 5 6 6 7 9 9 9 9 7 6 4 2 2 3 4 5 6 7 9 10 9 7 6 5 5 4 3 2 2 2
3 4 3 3 3 2 2 2 2 2 3 4 5 5 6 6 6 7 7 8 8 8 7 6 5 4 2 2 3 4 5 8 9 9 8 7 6 5 4 3 3 2 2
3 5 5 5 5 4 4 4 4 4 4 5 6 7 8 7 7 6 6 7 7 7 7 7 7 6 4 3 2 2 4 6 7 7 8 7 6 5 4 4 3 3 2
4 5 6 6 6 6 6 6 6 6 6 7 8 9 10 10 9 8 7 7 7 7 7 7 7 7 6 4 2 1 3 5 6 6 7 7 6 6 5 4 4 3 3
6 6 7 7 7 7 7 7 7 7 8 8 9 10 11 12 12 11 10 9 8 8 8 7 7 7 6 5 3 1 2 3 4 5 5 6 6 6 6 5 5 5 4
8 9 8 8 9 8 8 8 8 9 9 9 10 11 13 13 13 13 13 12 11 10 9 8 8 7 7 6 4 3 3 3 3 4 5 5 6 6 6 6 6 5 5
10 11 11 11 11 11 10 10 10 10 11 11 12 13 13 14 15 15 15 14 14 13 11 10 10 8 7 6 6 5 5 4 4 4 5 6 6 6 6 7 6 6 6
15 14 14 14 14 14 14 13 13 12 12 13 13 14 15 16 16 16 16 16 16 15 14 13 12 11 9 8 7 7 7 6 5 6 6 6 7 7 7 7 7 7 8
19 18 17 17 18 17 18 17 16 16 16 15 15 15 15 16 17 18 17 18 18 17 16 16 15 13 12 11 9 9 9 9 8 7 7 7 7 8 8 9 9 10 10
22 21 21 20 20 19 19 19 19 19 19 18 17 16 16 16 17 18 18 19 20 19 19 18 18 16 15 14 12 11 12 12 11 10 9 9 9 9 9 10 10 11 12
26 25 25 24 23 22 22 21 21 21 21 20 19 18 18 18 17 17 18 19 20 21 21 20 20 19 18 17 16 15 14 14 14 13 12 11 11 11 11 12 12 13 13
30 29 28 27 26 25 25 24 23 23 23 22 22 21 20 19 19 19 19 20 21 22 22 21 22 21 21 20 19 18 17 16 15 15 15 14 14 14 14 14 15 15 15
34 34 33 31 30 28 27 26 25 25 25 25 26 25 23 22 22 22 21 21 21 22 22 22 22 23 23 23 22 21 20 19 17 17 17 17 17 16 16 16 17 17 18
38 38 37 35 34 33 31 30 29 29 29 29 29 30 28 26 24 24 23 22 22 22 22 23 23 24 25 24 24 23 23 23 22 20 19 19 19 19 19 18 19 19 19
41 40 40 39 37 36 35 34 33 33 33 33 32 32 31 29 27 25 25 24 23 22 22 23 24 24 26 26 26 26 25 25 25 23 22 21 20 21 22 21 21 21 21
42 42 42 41 40 39 37 36 36 35 35 35 33 33 32 31 30 28 27 25 24 23 23 23 24 25 26 27 28 28 27 27 27 26 25 24 22 22 23 23 23 23 23
41 42 42 41 40 39 38 38 37 36 36 36 36 35 32 32 31 30 29 28 27 25 24 23 23 25 27 28 28 29 29 29 29 28 27 26 25 24 23 23 23 24 25
38 39 39 40 39 39 38 37 37 36 35 35 35 33 32 31 31 32 31 29 29 28 26 25 24 26 28 29 30 31 31 31 30 30 29 28 27 26 24 24 23 24 25
34 35 36 37 37 37 36 36 35 34 33 33 33 33 33 33 32 32 31 31 30 28 26 25 25 25 27 30 31 32 32 32 32 31 30 30 28 28 26 26 25 24 24
Wind_Direction
83 86 85 80 75 71 68 64 61 57 56 55 55 54 54 58 67 81 94 110 124 135 143 149 153 162 175 185 196 203 206 212 213 215 221 232 238 244 251 257 262 267 276
87 90 91 86 79 74 70 66 63 59 56 54 53 52 52 52 55 64 77 91 108 127 139 148 157 164 173 184 192 201 209 217 219 221 229 237 244 250 256 259 264 267 272
93 96 98 95 87 79 74 70 65 61 58 55 52 51 50 50 49 50 57 71 91 112 137 155 167 177 181 188 196 203 212 220 224 226 235 243 249 253 255 258 261 262 266
102 103 104 103 97 88 80 74 68 63 59 55 52 50 49 48 47 46 46 50 65 90 121 156 180 193 201 202 204 209 214 222 226 230 237 243 249 253 255 255 255 258 258
119 114 112 110 106 97 87 78 71 65 59 54 51 50 48 47 46 46 45 44 46 56 94 168 192 206 214 217 218 218 219 224 228 233 237 245 249 253 252 247 248 247 252
141 129 123 119 115 108 98 85 74 64 54 47 44 44 44 45 45 44 43 43 42 40 37 236 225 229 229 230 229 228 227 228 228 232 240 248 252 248 241 236 232 238 248
172 158 143 135 127 121 110 89 67 50 39 30 27 30 34 38 42 42 41 40 38 34 26 358 268 252 248 244 241 237 234 231 230 232 238 242 244 232 222 220 228 251 259
202 200 197 184 172 163 150 113 25 12 6 2 2 6 13 21 28 33 33 32 30 27 22 12 347 294 267 257 253 247 238 232 229 231 235 238 239 236 223 234 262 283 283
224 223 224 228 232 239 249 264 289 314 331 337 338 336 340 348 1 10 16 19 19 18 16 13 8 358 329 284 261 246 236 231 230 232 233 235 236 238 228 234 256 285 292
236 239 238 242 247 256 264 271 279 293 307 315 319 319 319 322 327 337 347 354 0 2 4 4 5 6 3 343 304 255 230 227 227 227 230 235 238 240 243 254 266 276 281
251 250 252 253 257 264 271 276 280 286 295 301 303 304 306 308 309 309 315 323 333 340 347 352 356 359 2 2 358 290 226 224 226 224 227 235 240 244 254 265 277 288 289
271 261 259 259 262 266 271 275 279 283 289 294 295 296 296 298 299 298 298 300 306 315 325 332 339 346 351 355 358 325 241 231 231 229 230 236 240 245 255 266 272 282 285
279 276 269 264 263 264 267 273 279 283 286 289 290 290 291 291 292 291 290 289 291 297 304 310 316 325 334 339 335 313 287 262 242 236 233 237 243 248 255 261 263 268 273
264 269 273 273 272 271 269 271 276 280 282 284 285 285 285 286 286 285 286 286 284 285 290 294 297 301 308 316 315 309 301 288 266 252 247 245 247 254 259 261 262 263 268
254 256 260 265 268 270 271 272 274 277 279 281 282 282 282 282 282 281 281 281 280 278 280 284 286 287 289 293 297 296 296 296 288 272 262 257 256 259 261 262 261 261 267
256 254 253 257 260 264 267 269 273 277 278 279 281 281 280 279 280 279 277 275 274 273 273 275 278 280 281 283 286 288 287 285 284 281 275 269 267 268 269 268 266 262 262
260 258 257 258 258 258 262 266 272 276 277 278 279 279 278 277 276 276 275 274 273 272 271 272 274 275 274 273 274 277 277 278 279 278 278 279 280 278 275 274 272 268 266
264 261 258 257 257 257 260 264 267 271 274 276 276 276 276 275 274 272 271 271 271 272 270 270 270 271 270 269 268 269 268 272 276 276 277 280 283 282 279 278 275 273 271
265 264 262 260 258 256 257 259 262 266 269 272 273 272 272 272 273 272 270 268 267 266 266 267 267 267 267 267 268 267 264 266 271 274 276 280 282 281 279 278 277 277 276
264 265 265 265 263 261 259 258 261 264 266 268 271 271 269 269 271 272 271 269 268 266 265 265 266 264 264 265 265 264 263 264 266 268 274 279 280 281 280 279 279 279 278
262 262 263 264 264 265 264 263 263 264 266 267 269 272 270 266 267 268 268 269 268 267 265 266 266 264 261 261 262 261 262 264 265 265 269 274 278 281 281 281 281 282 281
261 261 261 261 261 263 263 265 265 265 266 266 269 270 270 268 264 263 264 265 265 266 268 267 267 266 261 260 259 259 259 261 264 266 266 267 272 277 279 281 282 282 281
259 259 259 260 260 260 261 262 263 263 265 267 267 266 268 267 265 261 258 263 263 263 267 269 267 266 264 262 260 257 256 257 260 263 266 266 266 268 273 277 280 281 280
256 256 257 258 259 260 259 260 261 262 263 265 266 266 266 264 266 263 258 259 262 262 265 269 270 266 264 263 260 256 254 255 258 261 264 266 267 267 270 272 275 277 279
252 253 255 256 257 259 259 258 259 259 261 263 265 266 269 269 270 267 264 263 264 264 264 268 270 269 265 262 258 255 252 251 254 257 260 263 265 268 269 269 271 273 274
252 252 252 254 254 256 257 258 258 258 258 260 264 270 271 272 273 272 275 271 268 266 267 269 269 270 266 263 261 253 250 250 251 254 257 260 262 265 268 270 271 271 270
Height
5915 5914 5914 5914 5913 5913 5912 5912 5911 5911 5910 5909 5908 5907 5907 5906 5906 5906 5906 5905 5905 5905 5904 5904 5905 5905 5905 5906 5907 5909 5910 5912 5913 5914 5915 5916 5916 5916 5917 5917 5917 5917 5916
5916 5916 5916 5916 5915 5915 5915 5914 5914 5913 5912 5911 5910 5909 5908 5908 5907 5907 5906 5906 5906 5905 5905 5905 5905 5905 5906 5907 5908 5909 5910 5911 5912 5913 5914 5915 5915 5915 5916 5916 5916 5916 5915
5918 5917 5917 5917 5917 5917 5917 5916 5916 5915 5914 5913 5912 5911 5910 5909 5908 5907 5907 5907 5906 5906 5906 5906 5906 5906 5906 5907 5908 5909 5910 5911 5911 5912 5913 5913 5914 5914 5914 5914 5914 5914 5914
5918 5919 5919 5919 5919 5919 5919 5918 5918 5917 5916 5915 5914 5913 5912 5911 5910 5909 5908 5907 5907 5907 5907 5907 5906 5906 5907 5907 5908 5908 5909 5910 5910 5911 5912 5912 5912 5912 5912 5912 5912 5912 5912
5919 5919 5920 5920 5920 5920 5920 5920 5920 5919 5918 5917 5916 5915 5913 5912 5911 5910 5909 5908 5907 5907 5907 5907 5907 5906 5907 5907 5908 5908 5908 5909 5909 5910 5910 5911 5911 5911 5910 5910 5911 5911 5911
5920 5920 5920 5921 5921 5921 5921 5921 5921 5920 5920 5919 5918 5916 5915 5914 5913 5912 5911 5910 5908 5908 5907 5907 5906 5906 5906 5907 5907 5907 5908 5908 5908 5909 5909 5910 5910 5910 5909 5910 5910 5910 5910
5920 5921 5921 5921 5921 5922 5922 5922 5922 5921 5921 5920 5919 5918 5916 5915 5914 5913 5912 5911 5910 5908 5907 5907 5906 5906 5906 5906 5906 5906 5907 5907 5907 5908 5908 5909 5909 5909 5909 5909 5909 5909 5909
5920 5921 5921 5921 5922 5922 5922 5922 5922 5922 5921 5920 5919 5918 5917 5916 5915 5914 5913 5912 5911 5909 5908 5907 5906 5906 5906 5906 5905 5905 5906 5906 5906 5907 5908 5908 5908 5909 5909 5909 5909 5909 5909
5920 5920 5921 5921 5922 5922 5922 5922 5922 5922 5921 5920 5919 5918 5917 5916 5916 5915 5914 5912 5911 5910 5909 5908 5907 5906 5906 5905 5905 5905 5905 5905 5905 5906 5907 5907 5908 5908 5908 5908 5908 5908 5908
5920 5920 5920 5920 5921 5921 5921 5921 5921 5921 5921 5920 5919 5918 5917 5916 5915 5914 5914 5913 5912 5910 5909 5908 5907 5906 5906 5905 5904 5904 5904 5904 5904 5905 5906 5906 5907 5907 5907 5907 5907 5907 5907
5919 5919 5919 5920 5920 5920 5920 5920 5920 5920 5920 5919 5918 5917 5916 5915 5915 5914 5913 5912 5911 5910 5909 5909 5908 5907 5906 5905 5904 5904 5903 5903 5904 5904 5905 5905 5906 5906 5906 5907 5907 5907 5907
5919 5919 5919 5918 5918 5918 5919 5919 5919 5919 5918 5918 5917 5916 5915 5914 5913 5912 5912 5911 5910 5910 5909 5908 5908 5907 5906 5905 5904 5903 5903 5903 5903 5904 5904 5905 5905 5905 5906 5906 5906 5906 5906
5917 5917 5917 5917 5917 5917 5917 5917 5917 5917 5916 5916 5915 5914 5913 5912 5911 5911 5910 5909 5909 5908 5908 5907 5907 5906 5906 5905 5904 5903 5903 5902 5903 5903 5903 5903 5904 5904 5904 5904 5905 5905 5905
5917 5916 5915 5914 5914 5914 5914 5914 5914 5914 5914 5913 5913 5912 5911 5909 5909 5908 5908 5907 5907 5906 5906 5905 5905 5905 5905 5904 5904 5903 5902 5902 5902 5902 5902 5902 5902 5903 5903 5903 5903 5904 5904
5915 5915 5914 5913 5912 5912 5911 5911 5911 5911 5911 5910 5910 5909 5908 5907 5906 5905 5905 5904 5904 5904 5903 5903 5903 5903 5903 5903 5902 5902 5901 5901 5901 5901 5900 5900 5901 5901 5901 5902 5902 5902 5903
5910 5910 5910 5910 5909 5908 5908 5908 5907 5907 5907 5906 5906 5906 5905 5904 5903 5902 5901 5901 5901 5901 5901 5900 5900 5900 5900 5900 5900 5900 5899 5899 5899 5899 5899 5899 5899 5899 5899 5899 5900 5900 5900
5904 5904 5905 5905 5905 5904 5904 5904 5903 5903 5902 5902 5902 5901 5901 5901 5900 5899 5898 5897 5897 5896 5897 5897 5896 5896 5897 5897 5898 5898 5897 5897 5897 5897 5896 5896 5896 5897 5897 5897 5897 5897 5898
5895 5896 5897 5898 5898 5899 5899 5899 5899 5898 5898 5897 5897 5897 5896 5896 5896 5895 5894 5894 5893 5892 5892 5892 5892 5892 5893 5893 5894 5895 5895 5894 5894 5894 5894 5894 5894 5894 5894 5894 5894 5894 5895
5888 5888 5889 5889 5891 5892 5892 5893 5893 5893 5892 5892 5891 5892 5891 5891 5890 5890 5890 5889 5889 5888 5888 5888 5888 5888 5888 5889 5890 5890 5891 5891 5891 5890 5890 5890 5891 5891 5891 5891 5891 5891 5891
5879 5880 5880 5881 5883 5884 5884 5885 5886 5887 5886 5886 5885 5885 5886 5886 5885 5885 5884 5884 5883 5883 5883 5883 5883 5883 5884 5884 5885 5885 5886 5886 5887 5887 5886 5886 5886 5887 5887 5887 5887 5887 5887
5870 5870 5871 5872 5874 5875 5876 5877 5878 5879 5879 5879 5878 5878 5879 5879 5879 5878 5878 5878 5878 5877 5877 5877 5878 5878 5878 5879 5880 5880 5880 5881 5882 5883 5883 5882 5882 5882 5882 5883 5883 5882 5882
5859 5860 5861 5862 5864 5866 5868 5869 5869 5870 5870 5870 5871 5870 5870 5871 5871 5871 5871 5871 5871 5871 5871 5871 5871 5871 5872 5873 5874 5875 5875 5876 5876 5877 5877 5878 5878 5877 5877 5877 5878 5877 5877
5848 5849 5851 5852 5854 5856 5858 5859 5860 5861 5862 5861 5862 5862 5862 5861 5862 5863 5863 5863 5864 5864 5865 5865 5865 5865 5865 5866 5867 5868 5869 5869 5870 5871 5871 5872 5873 5873 5873 5872 5872 5872 5871
5838 5839 5841 5842 5844 5846 5848 5850 5851 5853 5853 5854 5853 5853 5853 5852 5852 5853 5854 5855 5856 5856 5857 5857 5858 5858 5858 5859 5860 5861 5862 5863 5864 5865 5865 5865 5866 5867 5867 5868 5867 5866 5865
5827 5829 5831 5833 5834 5836 5838 5840 5842 5844 5845 5845 5844 5844 5843 5843 5843 5844 5845 5846 5847 5848 5848 5849 5850 5850 5850 5851 5852 5853 5854 5855 5856 5858 5858 5859 5860 5860 5861 5862 5862 5862 5860
5818 5819 5821 5823 5825 5827 5829 5831 5833 5835 5836 5836 5837 5837 5836 5836 5836 5835 5835 5837 5838 5839 5840 5840 5841 5842 5842 5843 5843 5845 5846 5847 5849 5851 5852 5852 5853 5854 5854 5854 5855 5855 5855